Theta_e
288 289 291 292 293 294 294 295 297 298 299 300 303 306 308 310 313 317 326 325 324 323
287 289 290 291 293 294 295 296 297 298 299 302 303 301 303 306 309 312 319 326 325 325
286 288 290 291 292 294 294 296 297 298 300 299 299 298 299 301 305 306 310 326 326 325
286 288 290 290 292 293 295 296 297 298 298 296 296 296 296 298 301 301 306 311 324 324
287 288 289 290 291 293 295 296 297 297 296 294 294 294 294 295 297 298 300 305 309 316
286 287 287 289 292 294 295 296 297 294 293 292 292 292 293 294 296 298 299 302 305 309
285 287 288 290 293 293 295 295 295 292 291 291 291 291 291 293 296 299 302 305 306 309
286 288 289 290 293 293 294 295 292 291 290 290 290 290 290 291 295 297 299 302 301 302
286 288 290 292 291 292 293 293 292 289 288 288 288 289 290 291 294 297 296 294 296 299
286 287 291 291 291 291 290 292 289 286 286 285 287 288 289 290 294 294 294 292 292 294
286 286 289 290 288 288 289 290 286 284 284 284 285 287 288 289 293 292 292 291 290 291
285 286 289 288 285 286 285 285 284 284 283 283 283 287 288 288 290 289 290 290 289 289
285 286 287 285 283 282 283 284 284 283 283 284 282 286 287 287 288 287 287 288 288 287
284 286 287 283 282 281 281 281 281 281 281 281 282 283 286 286 285 286 284 284 284 285
Wind_Speed
7 4 5 6 7 6 6 7 11 11 11 11 10 9 9 6 6 7 5 8 5 3
6 7 6 7 7 6 7 8 9 10 11 11 10 11 10 7 8 7 6 7 6 5
6 7 6 6 7 9 9 9 9 10 9 9 9 10 11 7 8 8 7 3 7 7
7 7 6 5 6 8 9 9 9 9 7 9 10 10 10 10 9 9 8 8 3 7
6 7 6 5 7 8 9 8 8 8 8 10 10 11 11 11 9 9 9 8 7 8
7 7 7 5 8 8 9 8 7 9 9 10 10 11 11 10 9 9 8 7 8 8
7 7 6 6 8 8 8 9 9 9 9 10 10 11 10 10 8 8 7 6 5 6
6 6 6 7 7 8 8 8 8 9 9 10 10 11 13 9 8 8 7 9 11 8
6 5 8 7 7 7 8 9 10 9 9 10 9 20 20 14 9 9 10 10 10 9
6 4 6 5 7 8 8 5 8 8 8 9 10 22 22 17 8 10 11 13 11 10
5 5 5 4 4 4 5 7 6 6 8 8 9 21 22 16 9 9 11 12 12 11
5 5 4 5 5 4 5 5 5 6 7 8 9 20 21 13 8 9 10 9 13 13
4 4 4 5 5 4 4 5 4 6 7 12 9 18 20 15 7 9 7 9 11 20
3 4 4 4 4 4 5 4 5 5 6 7 10 12 20 20 8 6 7 7 8 9
Wind_Direction
333 326 323 332 335 333 343 333 341 335 333 326 333 332 338 319 329 337 197 184 171 182
327 330 323 325 336 335 337 335 331 330 334 334 6 356 339 346 335 336 313 204 194 214
317 320 325 332 338 338 332 336 337 344 351 356 9 353 359 346 341 343 334 257 194 202
324 323 333 337 332 342 333 339 340 340 16 8 5 357 352 352 354 345 327 337 264 210
330 334 339 347 334 347 337 338 338 21 17 17 6 358 356 346 344 337 331 333 335 332
334 333 335 350 345 352 341 341 4 28 20 15 7 4 351 339 335 326 326 328 329 326
330 327 331 348 357 349 354 356 62 42 25 11 11 6 351 340 336 334 340 318 319 335
323 332 346 355 6 354 15 20 63 35 26 17 20 1 354 345 349 349 351 16 20 43
339 353 1 8 18 2 27 35 45 30 16 13 16 1 360 358 0 22 33 23 11 12
342 3 23 13 22 17 7 48 56 27 16 6 11 7 7 358 20 33 36 29 14 15
348 10 19 32 19 14 11 37 46 25 12 8 4 8 14 0 30 40 40 40 24 23
349 23 47 12 20 16 23 29 44 30 11 9 4 8 16 12 15 34 38 36 36 22
2 43 53 52 44 32 36 36 32 22 15 13 0 9 20 19 13 33 26 28 32 25
20 108 71 59 47 49 48 49 37 23 5 13 10 4 20 28 24 17 30 28 23 25